File timestamp: Sat Aug 13 01:00:00 2016, Internal temp: 22.2015380859375
1471050001, 0.000857921957504004, -0.00350846140645444, -0.00337780476547778, 33838, 32673, 23199, 12.744610786438
1471050002, 0.00418028933927417, -0.0029103837441653, -0.00317853898741305, 33843, 32675, 23190, NaN
1471050003, 0.00701601058244705, -0.00276057166047394, -0.00284040067344904, 33850, 32677, 23195, NaN
1471050004, 0.0102103697136045, -0.00270590931177139, -0.0023540873080492, 33840, 32668, 23202, NaN
1471050005, 0.0126192737370729, -0.0025171774905175, -0.00202265242114663, 33855, 32686, 23185, NaN
1471050006, 0.0146547481417656, -0.00252610840834677, -0.00194088323041797, 33839, 32683, 23201, NaN
1471050007, 0.0158236045390368, -0.00226581748574972, -0.00185687432531267, 33841, 32679, 23196, NaN
1471050008, 0.0160964243113995, -0.0015101982280612, -0.00246100150980055, 33846, 32681, 23184, NaN
1471050009, 0.0152799719944596, -0.00134663586504757, -0.00191794941201806, 33845, 32678, 23193, NaN
1471050010, 0.0135244196280837, -0.00167351122945547, -0.00290096853859723, 33850, 32664, 23193, NaN
1471050011, 0.0126619655638933, -0.00251606851816177, -0.00340291555039585, 33841, 32680, 23186, NaN
1471050012, 0.0124094123020768, -0.00280650542117655, -0.00369042879901826, 33830, 32673, 23198, NaN
1471050013, 0.012398567982018, -0.0029045301489532, -0.00397255923599005, 33848, 32678, 23182, NaN
1471050014, 0.0111997295171022, -0.00218390137888491, -0.00413367012515664, 33851, 32681, 23185, NaN
1471050015.008, 0.0106115778908134, -0.00219723931513727, -0.00392698589712381, 33844, 32672, 23193, NaN
1471050016.008, 0.0102299153804779, -0.00262139504775405, -0.00388146610930562, 33844, 32680, 23184, NaN
1471050016.008, 0.0104094436392188, -0.00278714019805193, -0.0034327816683799, 33846, 32672, 23202, NaN
1471050017.016, 0.0106456223875284, -0.00251632509753108, -0.00369528774172068, 33855, 32689, 23198, NaN
1471050018.016, 0.0115543249994516, -0.002459503011778, -0.00368466717191041, 33845, 32669, 23202, NaN
1471050019.016, 0.0112824030220509, -0.00260694185271859, -0.00401887251064181, 33850, 32679, 23200, NaN
1471050020.016, 0.00927932374179363, -0.001712272525765, -0.00418951362371445, 33846, 32663, 23195, NaN
1471050020.016, 0.00707554630935192, -0.0018254533642903, -0.00423093838617206, 33853, 32675, 23200, NaN
1471050021.022, 0.00405770447105169, -0.00201298343017697, -0.00411037588492036, 33849, 32682, 23193, NaN
1471050022.022, 0.00136531144380569, -0.00231629284098744, -0.00360334618017077, 33835, 32679, 23204, NaN
1471050023.022, -4.4499734940473e-05, -0.00244326563552022, -0.00341658480465412, 33838, 32677, 23192, NaN
1471050024.022, 0.00231631891801953, -0.00137612072285265, -0.00389139959588647, 33839, 32680, 23196, NaN
1471050024.022, 0.0077378056012094, -0.00125275563914329, -0.00576231209561229, 33852, 32684, 23190, NaN
1471050025.028, 0.0154036963358521, 0.000205946518690325, -0.00612150318920612, 33843, 32668, 23192, NaN
1471050026.028, 0.0249315351247787, -7.50600811443292e-05, -0.00600493187084794, 33842, 32678, 23181, NaN
1471050027.028, 0.0359105430543423, -0.000732765067368746, -0.00544549385085702, 33846, 32671, 23187, NaN
1471050028.028, 0.0473668128252029, -0.000681304198224097, -0.00585311371833086, 33839, 32677, 23207, NaN
1471050029.028, 0.0584369301795959, -0.000899623380973935, -0.00637924857437611, 33842, 32678, 23202, NaN
1471050030.028, 0.0676461011171341, -0.00132798752747476, -0.00621854467317462, 33839, 32668, 23205, NaN
1471050031.028, 0.0763260647654533, -0.000292771816020831, -0.00663238018751144, 33845, 32672, 23204, NaN
1471050032.028, 0.0853855237364769, -0.000197765170014463, -0.00628967257216573, 33848, 32673, 23198, NaN
1471050033.028, 0.0959843844175339, 0.000244084891164675, -0.00596638349816203, 33837, 32671, 23198, NaN
1471050034.028, 0.108227118849754, 0.000555248698219657, -0.00620433408766985, 33845, 32687, 23191, NaN
1471050035.028, 0.121110394597054, 0.000314208038616925, -0.00631980178877711, 33848, 32669, 23194, NaN
1471050036.028, 0.134602442383766, 0.000779248541221023, -0.00608041696250439, 33845, 32674, 23196, NaN
1471050037.028, 0.148108541965485, 0.00133491936139762, -0.00671051163226366, 33846, 32678, 23184, NaN
1471050038.028, 0.161265447735786, 0.00155260530300438, -0.00667102541774511, 33853, 32672, 23191, NaN
1471050039.028, 0.171501040458679, 0.00150545849464834, -0.00640184665098786, 33852, 32677, 23186, NaN
1471050040.028, 0.178136542439461, 0.00133904069662094, -0.00750820664688945, 33852, 32677, 23190, NaN
1471050041.038, 0.153991878032684, 0.00185812183190137, -0.00755755789577961, 33838, 32671, 23211, NaN
1471050042.038, 0.129462853074074, 0.00165908061899245, -0.00759626599028707, 33852, 32677, 23199, NaN
1471050043.038, 0.10760336369276, 0.00152883771806955, -0.00843534711748362, 33849, 32678, 23185, NaN
1471050043.038, 0.0882223770022392, 0.00179882091470063, -0.00859011895954609, 33841, 32665, 23197, NaN
1471050044.046, 0.0711382701992989, 0.00070645974483341, -0.00830480456352234, 33836, 32666, 23203, NaN
1471050045.046, 0.0561776347458363, 0.00121329620014876, -0.00791633035987616, 33851, 32675, 23187, NaN
1471050046.046, 0.0431744009256363, 0.00163861061446369, -0.0082548912614584, 33850, 32684, 23182, NaN
1471050047.046, 0.0319693014025688, 0.00134758104104549, -0.00899507012218237, 33845, 32671, 23192, NaN
1471050047.046, 0.0224094819277525, 0.00138018606230617, -0.00779086258262396, 33852, 32674, 23204, NaN
1471050048.052, 0.0143483486026525, 0.00134250533301383, -0.00699417339637876, 33849, 32671, 23187, NaN
1471050049.052, 0.00764550548046827, 0.00193436292465776, -0.00748216640204191, 33849, 32675, 23192, NaN
1471050050.052, 0.00216679228469729, 0.00165037834085524, -0.00766647094860673, 33844, 32669, 23187, NaN
1471050051.052, -0.00221561687067151, 0.00137407390866429, -0.0077760717831552, 33850, 32673, 23195, NaN
1471050051.052, -0.00562308868393302, 0.00144524220377207, -0.00792538933455944, 33839, 32675, 23210, NaN
1471050052.056, -0.00817039329558611, 0.00153354182839394, -0.00794065557420254, 33842, 32687, 23197, NaN
1471050053.056, -0.00996557343751192, 0.00182944990228862, -0.00831774808466434, 33859, 32687, 23183, NaN
1471050054.056, -0.0111098382622004, 0.00209378334693611, -0.00868756975978613, 33841, 32684, 23203, NaN
1471050055.056, -0.011697486974299, 0.000916435092221946, -0.00876378174871206, 33847, 32679, 23202, 15.1437206268311
1471050056.056, -0.0118158711120486, 0.00106765516102314, -0.00881562568247318, 33848, 32663, 23197, NaN
1471050057.056, -0.0115453992038965, 0.00183053337968886, -0.00888347811996937, 33844, 32674, 23193, NaN
1471050058.056, -0.0109595889225602, 0.00179930694866925, -0.00896806083619595, 33841, 32681, 23196, NaN
1471050059.056, -0.010125164873898, 0.00180247437674552, -0.00865407008677721, 33849, 32683, 23190, NaN
1471050060.056, -0.00910219829529524, 0.00169608893338591, -0.0079780425876379, 33846, 32674, 23197, NaN
1471050061.056, -0.00794429425150156, 0.00109846529085189, -0.00801559258252382, 33845, 32670, 23189, NaN
1471050062.056, -0.00669881841167808, 0.00076440698467195, -0.00851364247500896, 33838, 32681, 23194, NaN
1471050063.056, -0.00540715362876654, 0.00163819175213575, -0.00877027865499258, 33856, 32688, 23188, NaN
1471050064.056, -0.00410499516874552, 0.000595487421378493, -0.00824133586138487, 33852, 32666, 23190, NaN
1471050065.056, -0.00282266899012029, 0.000629175920039415, -0.00727824866771698, 33849, 32675, 23183, NaN
1471050066.056, -0.00158546946477145, 0.00059572362806648, -0.00709237065166235, 33841, 32690, 23188, NaN
1471050067.056, -0.000414015812566504, 0.00156288268044591, -0.00813120976090431, 33845, 32674, 23196, NaN
1471050068.064, 0.00011939276009798, 0.00132966961245984, -0.00763887306675315, 33857, 32676, 23190, NaN
1471050069.064, -0.000960257719270885, 0.00109035416971892, -0.00656479597091675, 33839, 32681, 23209, NaN
1471050069.064, -0.00269278581254184, 0.00132279365789145, -0.00720407860353589, 33845, 32692, 23192, NaN
1471050070.072, -0.0050842403434217, 0.000840390217490494, -0.00715594552457333, 33840, 32674, 23199, NaN
1471050071.072, -0.00703223422169685, 0.00123922398779541, -0.00710138631984591, 33841, 32679, 23204, NaN
1471050072.072, -0.00917141046375036, 0.000968297419603914, -0.00762976240366697, 33847, 32675, 23194, NaN
1471050073.072, -0.0107272481545806, 0.000878114136867225, -0.00736167514696717, 33858, 32680, 23198, NaN
1471050073.072, -0.0119164101779461, 0.00075692287646234, -0.00646274536848068, 33852, 32682, 23197, NaN
1471050074.078, -0.0122830383479595, 0.000414650421589613, -0.00614906055852771, 33845, 32669, 23188, NaN
1471050075.078, -0.0114259691908956, 0.000989985303021967, -0.00637388043105602, 33850, 32674, 23191, NaN
1471050076.078, -0.00932960957288742, 0.000944110506679863, -0.00658894330263138, 33841, 32683, 23199, NaN
1471050077.078, -0.00618503335863352, 0.00116753566544503, -0.00582377938553691, 33842, 32675, 23198, NaN
1471050078.078, -0.002589964075014, 0.00130366301164031, -0.00579678593203425, 33851, 32682, 23192, NaN
1471050079.078, 0.00100021308753639, 0.00125956197734922, -0.00528537342324853, 33824, 32669, 23200, NaN
1471050080.078, 0.00425400538370013, 0.00151366763748229, -0.0048230872489512, 33840, 32695, 23197, NaN
1471050081.078, 0.00763918599113822, 0.00197285623289645, -0.00452474784106016, 33851, 32673, 23183, NaN
1471050082.078, 0.0118627557530999, 0.00207881326787174, -0.00458473572507501, 33855, 32675, 23187, NaN
1471050083.078, 0.0149289602413774, 0.00157528521958739, -0.0041987462900579, 33838, 32674, 23197, NaN
1471050084.078, 0.0174219440668821, 0.00144051958341151, -0.00420039845630527, 33850, 32664, 23195, NaN
1471050085.078, 0.0196446403861046, 0.000963519269134849, -0.00380178936757147, 33835, 32679, 23197, NaN
1471050086.078, 0.0203431956470013, 0.00102675426751375, -0.004144087433815, 33851, 32691, 23189, NaN
1471050087.078, 0.019846647977829, 0.00108513189479709, -0.00415129773318768, 33844, 32685, 23196, NaN
1471050088.078, 0.0195003915578127, 0.00140593841206282, -0.0039226389490068, 33839, 32679, 23202, NaN
1471050089.078, 0.019253496080637, 0.000975379021838307, -0.00409450707957149, 33835, 32680, 23208, NaN
1471050090.078, 0.0181827303022146, -0.000566448899917305, -0.00423242524266243, 33852, 32682, 23206, NaN
1471050091.078, 0.0165203046053648, -0.000955657393205911, -0.00475671049207449, 33841, 32672, 23196, NaN
1471050092.078, 0.0156965311616659, -0.00168293341994286, -0.00436923420056701, 33845, 32666, 23182, NaN
1471050093.078, 0.0149094881489873, -0.00180413585621864, -0.00441812677308917, 33843, 32676, 23198, NaN
1471050094.078, 0.0136284148320556, -0.00155701069161296, -0.0055318670347333, 33852, 32674, 23191, NaN
1471050095.088, 0.0131673943251371, -0.00111994263716042, -0.0055568665266037, 33856, 32675, 23200, NaN
1471050096.088, 0.0126488106325269, -0.00142315356060863, -0.0049453591927886, 33858, 32671, 23190, NaN
1471050097.088, 0.0117855696007609, -0.00220397929660976, -0.00456840125843883, 33847, 32679, 23198, NaN
1471050097.088, 0.00989352352917194, -0.00309775327332318, -0.00454323273152113, 33836, 32676, 23201, NaN
1471050098.096, 0.00794547144323587, -0.00283213751390576, -0.00475780200213194, 33854, 32673, 23194, NaN
1471050099.096, 0.00532212294638157, -0.00280351308174431, -0.00518069928511977, 33845, 32677, 23195, NaN
1471050100.096, 0.00303474604152143, -0.00355798006057739, -0.00535692414268851, 33855, 32672, 23187, NaN
1471050101.096, 0.00141818076372147, -0.00341988285072148, -0.00510644912719727, 33846, 32683, 23189, NaN
1471050101.096, -0.000441014912212268, -0.00375450006686151, -0.00586478598415852, 33844, 32684, 23199, NaN
1471050102.102, -0.00163726485334337, -0.00371772306971252, -0.00562024209648371, 33852, 32685, 23190, NaN
1471050103.102, -0.00262032076716423, -0.00395061308518052, -0.00570931006222963, 33846, 32676, 23206, NaN
1471050104.102, -0.00366468005813658, -0.00372727983631194, -0.00642033340409398, 33838, 32675, 23194, NaN
1471050105.102, -0.00330146355554461, -0.00295102037489414, -0.00585291860625148, 33850, 32678, 23195, NaN
1471050105.102, -0.00364494486711919, -0.0027934645768255, -0.00529663031920791, 33837, 32676, 23189, NaN
1471050106.106, -0.00372229260392487, -0.00257884548045695, -0.00563205545768142, 33846, 32667, 23188, NaN
1471050107.106, -0.00338178384117782, -0.00261476845480502, -0.00618029711768031, 33858, 32670, 23190, NaN
1471050108.106, -0.00282432627864182, -0.00287007889710367, -0.00547969667240977, 33852, 32681, 23187, NaN
1471050109.106, -0.00229756836779416, -0.00299936509691179, -0.00636087218299508, 33837, 32678, 23189, NaN
1471050109.106, -0.0031041984912008, -0.00285783177241683, -0.00596085609868169, 33843, 32676, 23193, 15.2461528778076
1471050110.108, -0.00442459853366017, -0.00283219409175217, -0.00531918462365866, 33840, 32681, 23203, NaN
1471050111.108, -0.0056403218768537, -0.00420034723356366, -0.00585685484111309, 33845, 32687, 23185, NaN
1471050112.108, -0.00587982730939984, -0.00469436915591359, -0.00616315612569451, 33843, 32675, 23205, NaN
1471050113.108, -0.00653378292918205, -0.00482562137767673, -0.00628690654411912, 33841, 32674, 23192, NaN
1471050114.108, -0.00671906350180507, -0.00483569456264377, -0.0061341873370111, 33851, 32687, 23196, NaN
1471050115.108, -0.0069560301490128, -0.00607879972085357, -0.0047492878511548, 33849, 32680, 23197, NaN
1471050116.108, -0.00633980240672827, -0.00627428479492664, -0.00473790010437369, 33847, 32670, 23194, NaN
1471050117.108, -0.0054983226582408, -0.00494113145396113, -0.00436776876449585, 33854, 32678, 23182, NaN
1471050118.108, -0.00248110527172685, -0.00570536963641644, -0.00420953286811709, 33846, 32679, 23197, NaN
1471050119.108, 0.00392306037247181, -0.0069488906301558, -0.00393913593143225, 33840, 32675, 23203, NaN
1471050120.116, 0.014000566676259, -0.0058990172110498, -0.0037478911690414, 33843, 32682, 23195, NaN
1471050121.116, 0.0277043599635363, -0.00548236025497317, -0.00294111599214375, 33846, 32670, 23195, NaN
1471050122.116, 0.0432835184037685, -0.00544856674969196, -0.00266226008534431, 33842, 32675, 23189, NaN
1471050122.116, 0.0416228137910366, -0.00470013683661819, -0.00321203609928489, 33843, 32680, 23193, NaN
1471050123.124, 0.0265448540449142, -0.00456082494929433, -0.00331253511831164, 33841, 32685, 23194, NaN
1471050124.124, 0.0137634854763746, -0.00467623630538583, -0.00350651238113642, 33853, 32679, 23187, NaN
1471050125.124, 0.00308953039348125, -0.00472311256453395, -0.00358141027390957, 33831, 32672, 23200, NaN
1471050126.124, -0.00566239841282368, -0.00454380037263036, -0.00339840515516698, 33849, 32672, 23202, NaN
1471050127.124, -0.0126730967313051, -0.00486287754029036, -0.00359519338235259, 33837, 32676, 23204, NaN
1471050128.124, -0.0181179493665695, -0.00444106524810195, -0.00471101514995098, 33842, 32677, 23190, NaN
1471050129.124, -0.0221661385148764, -0.00406675925478339, -0.00510400859639049, 33855, 32678, 23192, NaN
1471050130.124, -0.0249798968434334, -0.00382116809487343, -0.00518346112221479, 33857, 32684, 23184, NaN
1471050131.124, -0.0267138238996267, -0.00343471858650446, -0.00511311180889606, 33844, 32682, 23193, NaN
1471050132.124, -0.027514299377799, -0.00327036273665726, -0.00532455602660775, 33856, 32672, 23188, NaN
1471050133.124, -0.0275189895182848, -0.00248971069231629, -0.0058208261616528, 33847, 32681, 23174, NaN
1471050134.124, -0.0268564578145742, -0.00132099515758455, -0.00578704942017794, 33858, 32684, 23184, NaN
1471050135.124, -0.0256458781659603, -0.00121620704885572, -0.0055305864661932, 33845, 32679, 23200, NaN
1471050136.124, -0.0239968672394753, -0.000784538278821856, -0.0053381840698421, 33839, 32684, 23200, NaN
1471050137.124, -0.0220094099640846, -0.00127710739616305, -0.00525236129760742, 33830, 32671, 23190, NaN
1471050138.124, -0.0197738911956549, -0.00108874239958823, -0.00504744052886963, 33829, 32672, 23207, NaN
1471050139.124, -0.0173712242394686, -8.80380976013839e-05, -0.00470041576772928, 33849, 32681, 23197, NaN
1471050140.124, -0.0148730641230941, 0.000144793360959738, -0.00475725345313549, 33854, 32678, 23185, NaN
1471050141.124, -0.0123420879244804, -6.6038679506164e-05, -0.0040867617353797, 33841, 32666, 23204, NaN
1471050142.124, -0.00983236450701952, -0.000260256754700094, -0.00373521936126053, 33846, 32675, 23194, NaN
1471050143.124, -0.00738976104184985, -0.000625284155830741, -0.00286628701724112, 33838, 32681, 23204, NaN
1471050144.124, -0.00505241565406322, -0.00113607908133417, -0.00273197400383651, 33842, 32685, 23212, NaN
1471050145.124, -0.00285123684443533, -0.000430584419518709, -0.00293983006849885, 33853, 32667, 23188, NaN
1471050146.124, -0.0008104388252832, -3.19792598020285e-05, -0.00259094312787056, 33844, 32676, 23204, NaN
1471050147.124, 0.00105190719477832, 0.000817488820757717, -0.00288243149407208, 33849, 32677, 23198, NaN
1471050148.134, 0.00272330758161843, 0.000796273059677333, -0.00276458892039955, 33841, 32675, 23190, NaN
1471050149.134, 0.00419627828523517, 0.000322352658258751, -0.00269563752226532, 33845, 32684, 23190, NaN
1471050150.134, 0.00546778226271272, -0.00077041337499395, -0.00317611498758197, 33851, 32669, 23189, NaN
1471050151.134, 0.00653867330402136, -0.000423622172093019, -0.0030976147390902, 33847, 32677, 23190, NaN
1471050151.134, 0.00741316098719835, 0.000173033346072771, -0.00359528185799718, 33841, 32675, 23194, NaN
1471050152.142, 0.00743717234581709, -0.000636764278169721, -0.00422780308872461, 33856, 32680, 23180, NaN
1471050153.142, 0.00624779006466269, -0.00122286262921989, -0.0050952797755599, 33839, 32661, 23199, NaN
1471050154.142, 0.00414759153500199, -0.000900082930456847, -0.00550773041322827, 33848, 32692, 23191, NaN
1471050155.142, 0.00198210240341723, -0.000792583217844367, -0.00619551353156567, 33842, 32665, 23194, NaN
1471050155.142, 0.000816010870039463, -0.00127362960483879, -0.00627938844263554, 33838, 32684, 23199, NaN
1471050156.148, 0.000109766202513129, -0.00190444791223854, -0.00711801461875439, 33854, 32678, 23194, NaN
1471050157.148, 0.00524989562109113, -0.00202696421183646, -0.00708641391247511, 33836, 32691, 23204, NaN
1471050158.148, 0.0163351874798536, -0.00170695944689214, -0.0067597059533, 33848, 32682, 23192, NaN
1471050159.148, 0.0328382775187492, -0.00139920169021934, -0.00717174774035811, 33845, 32681, 23197, NaN
1471050159.148, 0.0535451173782349, -0.00142055016476661, -0.00753858825191855, 33847, 32669, 23185, NaN
1471050160.152, 0.0761767774820328, -0.00115428445860744, -0.00777732254937291, 33840, 32673, 23201, NaN
1471050161.152, 0.0988971143960953, -0.000905104621779174, -0.00772345950827003, 33847, 32678, 23191, NaN
1471050162.152, 0.120848663151264, -0.00180544715840369, -0.00689195981249213, 33852, 32681, 23191, NaN
1471050163.152, 0.141999021172523, -0.00188579957466573, -0.00714438036084175, 33834, 32696, 23200, NaN
1471050163.152, 0.161759659647942, -0.00232980912551284, -0.00693362159654498, 33834, 32684, 23204, NaN
1471050164.154, 0.17973966896534, -0.00272328360006213, -0.00657851528376341, 33853, 32683, 23196, 16.5788803100586
1471050165.154, 0.196768894791603, -0.00288658565841615, -0.00729885464534163, 33841, 32681, 23199, NaN
1471050166.154, 0.211575776338577, -0.00334883527830243, -0.00784287229180336, 33852, 32670, 23191, NaN
1471050167.154, 0.224627450108528, -0.00248639937490225, -0.00828289799392223, 33855, 32667, 23193, NaN
1471050167.154, 0.234429314732552, -0.00239557796157897, -0.009111188352108, 33845, 32681, 23204, NaN
1471050168.156, 0.241222649812698, -0.00209670723415911, -0.00945894327014685, 33846, 32679, 23194, NaN
1471050169.156, 0.244960784912109, -0.00216453312896192, -0.00880300439894199, 33853, 32676, 23189, NaN
1471050170.156, 0.245347231626511, -0.00184612546581775, -0.00902494508773088, 33856, 32680, 23190, NaN
1471050171.156, 0.243623659014702, -0.000934000709094107, -0.00923374481499195, 33848, 32674, 23197, NaN
1471050172.156, 0.238278925418854, -0.00121947447769344, -0.00858530029654503, 33861, 32676, 23182, NaN
1471050173.166, 0.229785248637199, -0.000408239429816604, -0.00843411311507225, 33843, 32681, 23200, NaN
1471050174.166, 0.219173267483711, -0.000205028933123685, -0.00914076995104551, 33846, 32683, 23185, NaN
1471050175.166, 0.206397727131844, 0.000298959581414238, -0.00879222434014082, 33854, 32666, 23192, NaN
1471050176.166, 0.192990839481354, 0.000274795165751129, -0.0088051613420248, 33842, 32679, 23187, NaN
1471050177.166, 0.179850742220879, 0.000526325544342399, -0.00892138201743364, 33840, 32680, 23195, NaN
1471050178.166, 0.165953904390335, 0.000465196208097041, -0.00860520638525486, 33854, 32678, 23191, NaN
1471050179.166, 0.15110270678997, -0.000190840102732182, -0.00880978628993034, 33851, 32669, 23186, NaN
1471050180.166, 0.13694266974926, -0.0001130582895712, -0.00964250788092613, 33853, 32677, 23190, NaN
1471050181.166, 0.123192831873894, -0.00103415548801422, -0.00983433611690998, 33851, 32672, 23197, NaN
1471050182.166, 0.110109493136406, -0.00153618806507438, -0.00985234975814819, 33838, 32665, 23188, NaN
1471050183.166, 0.0969383791089058, -0.00124688097275794, -0.0101206582039595, 33837, 32675, 23184, NaN
1471050184.166, 0.0846084803342819, -0.000484658405184746, -0.00941750779747963, 33858, 32687, 23180, NaN
1471050185.166, 0.0732679888606071, -0.00115776748862118, -0.00952546391636133, 33855, 32678, 23188, NaN
1471050186.166, 0.0620915554463863, -0.00115079362876713, -0.0086980564519763, 33842, 32686, 23205, NaN
1471050187.166, 0.0536338090896606, -0.000302272383123636, -0.00896959844976664, 33844, 32683, 23189, NaN
1471050188.166, 0.0482706315815449, 0.000107556050352287, -0.0095472251996398, 33848, 32678, 23180, NaN
1471050189.166, 0.0447131544351578, 2.35225161304697e-05, -0.00995082315057516, 33842, 32679, 23196, NaN
1471050190.166, 0.0425344780087471, 6.4007101173047e-05, -0.00998570770025253, 33840, 32675, 23198, NaN
1471050191.166, 0.0416222810745239, -0.00058410270139575, -0.0102642830461264, 33849, 32681, 23193, NaN
1471050192.166, 0.0407203063368797, -0.00059277523541823, -0.0105383992195129, 33842, 32668, 23193, NaN
1471050193.166, 0.0391039662063122, -0.00102762680035084, -0.0107395937666297, 33837, 32674, 23195, NaN
1471050194.166, 0.0370819009840488, 0.000139897310873494, -0.0107843475416303, 33848, 32676, 23198, NaN
1471050195.166, 0.0343305468559265, 0.000264696369413286, -0.0111228227615356, 33844, 32670, 23204, NaN
1471050196.166, 0.0136591643095016, 0.000692264991812408, -0.0117803420871496, 33841, 32674, 23194, NaN
1471050197.166, -0.00636225380003452, 0.000490734237246215, -0.0125836785882711, 33842, 32678, 23186, NaN
1471050198.166, -0.0229550022631884, 8.2697304605972e-05, -0.0120271015912294, 33842, 32677, 23193, NaN
1471050199.166, -0.036392617970705, 0.000128256433526985, -0.0117564247921109, 33838, 32674, 23199, NaN
1471050200.166, -0.0469495728611946, 0.000569120922591537, -0.0118885589763522, 33855, 32668, 23192, NaN
1471050201.166, -0.0548986829817295, 0.00109186221379787, -0.0107677625492215, 33846, 32673, 23187, NaN
1471050202.174, -0.0605086721479893, 0.000869717332534492, -0.0104817673563957, 33847, 32670, 23186, NaN
1471050203.174, -0.0640419200062752, 0.00102093024179339, -0.0100882221013308, 33855, 32664, 23187, NaN
1471050204.174, -0.0657524242997169, 0.000276574719464406, -0.00991293601691723, 33854, 32675, 23185, NaN
1471050205.174, -0.0658839792013168, -2.38815755437827e-05, -0.00983870215713978, 33846, 32672, 23188, NaN
1471050205.174, -0.0646686106920242, -0.000464689393993467, -0.00984322000294924, 33841, 32676, 23190, NaN
1471050206.182, -0.0623253174126148, -0.000418668176280335, -0.00960903149098158, 33837, 32673, 23197, NaN
1471050207.182, -0.0590589828789234, 0.000338692392688245, -0.00864645186811686, 33840, 32676, 23189, NaN
1471050208.182, -0.0550596229732037, -0.000225477037020028, -0.00880865752696991, 33851, 32683, 23187, NaN